Energy Champion — MJUZ7 — position and weather

sailwx.info

Track history (hours):
 
Tides and Currents Weather Stations Pressure Air Temp Water Temp Dewpoint Dewpoint Depression Visibility Wind Speed Wind Dir Waves Ship Positions

Energy Champion

Last reported at 2014-Nov-29 23:31 UTC. Time now 2014-Dec-21 06:14 UTC.
Position N 26°33' W 115°46'.
Warning: this ship's position is 21 days out of date.

Length 228 m; draft 8 m.

Type: Tanker. MMSI: 235009420.

Date/timePositionNaut miles runAvg speedWind from/ knotsBaromVisibWave heightAir tempDewpointWater temp
2014-Nov-29 23:31N 26°33' W 115°46'6612.4
2014-Nov-29 18:11N 27°33' W 116°18'6512.8
2014-Nov-29 13:06N 28°31' W 116°51'712.7
2014-Nov-29 12:34N 28°37' W 116°55'1312.7
2014-Nov-29 11:32N 28°49' W 117°01'2612.6
2014-Nov-29 09:29N 29°12' W 117°14'1212.7
2014-Nov-29 08:33N 29°23' W 117°20'1313.0
2014-Nov-29 07:33N 29°35' W 117°27'1313.0
2014-Nov-29 06:33N 29°46' W 117°33'1613.0
2014-Nov-29 05:20N 30°00' W 117°41'6112.8
2014-Nov-29 00:33N 30°55' W 118°12'1312.7
2014-Nov-28 23:33N 31°07' W 118°19'1212.4
2014-Nov-28 22:33N 31°18' W 118°26'6 6.5
2014-Nov-28 21:34N 31°23' W 118°29'1 1.3
2014-Nov-28 20:33N 31°25' W 118°30'3 2.6
2014-Nov-28 19:33N 31°26' W 118°32'2 2.2
2014-Nov-28 18:33N 31°28' W 118°34'2 1.9
2014-Nov-28 17:34N 31°29' W 118°36'2 2.0
2014-Nov-28 16:33N 31°30' W 118°38'2 1.8
2014-Nov-28 15:33N 31°31' W 118°39'2 1.8
2014-Nov-28 14:34N 31°32' W 118°41'2 1.8
2014-Nov-28 13:33N 31°33' W 118°43'2 1.8
2014-Nov-28 12:34N 31°34' W 118°45'2 1.8
2014-Nov-28 11:33N 31°35' W 118°47'2 1.8
2014-Nov-28 10:33N 31°36' W 118°48'2 1.9
2014-Nov-28 09:33N 31°38' W 118°50'2 1.7
2014-Nov-28 08:33N 31°39' W 118°51'2 1.8
2014-Nov-28 07:33N 31°40' W 118°53'2 1.8
2014-Nov-28 06:33N 31°41' W 118°55'2 1.9
2014-Nov-28 05:33N 31°42' W 118°57'2 1.8
2014-Nov-28 04:34N 31°43' W 118°58'2 1.8
2014-Nov-28 03:33N 31°44' W 119°00'2 2.0
2014-Nov-28 02:33N 31°45' W 119°02'2 1.7
2014-Nov-28 01:34N 31°46' W 119°04'2 1.9
2014-Nov-28 00:33N 31°47' W 119°06'2 1.6
2014-Nov-27 23:33N 31°47' W 119°07'2 1.9
2014-Nov-27 22:34N 31°48' W 119°09'2 1.8
2014-Nov-27 21:33N 31°49' W 119°11'2 1.7
2014-Nov-27 20:33N 31°50' W 119°13'2 1.6
2014-Nov-27 19:34N 31°50' W 119°15'4 4.1
2014-Nov-27 18:33N 31°53' W 119°19'6 5.5
2014-Nov-27 17:33N 31°56' W 119°24'4 3.6
2014-Nov-27 16:33N 31°58' W 119°28'2 1.6
2014-Nov-27 15:33N 31°59' W 119°29'2 2.2
2014-Nov-27 14:33N 32°01' W 119°31'7 7.0
2014-Nov-27 13:33N 31°57' W 119°24'4 3.8
2014-Nov-27 12:33N 31°57' W 119°19'0 0.1
2014-Nov-27 11:33N 31°56' W 119°19'0 0.1
2014-Nov-27 10:33N 31°57' W 119°19'0 0.3
2014-Nov-27 09:34N 31°57' W 119°19'0 0.5
2014-Nov-27 08:33N 31°57' W 119°19'1 0.6
2014-Nov-27 07:34N 31°58' W 119°19'1 0.6
2014-Nov-27 06:33N 31°58' W 119°20'1 0.8
2014-Nov-27 05:33N 31°59' W 119°20'1 0.7
2014-Nov-27 04:33N 31°60' W 119°21'1 0.7
2014-Nov-27 03:33N 32°00' W 119°22'1 0.7
2014-Nov-27 02:34N 32°01' W 119°22'1 0.9
2014-Nov-27 01:33N 32°01' W 119°23'9 9.3
2014-Nov-27 00:33N 32°08' W 119°30'4 3.6
2014-Nov-26 23:33N 32°05' W 119°30'1111.4
2014-Nov-26 22:33N 31°54' W 119°25'4 4.5
2014-Nov-26 21:33N 31°57' W 119°29'1212.4
2014-Nov-26 20:34N 32°07' W 119°37'1414.0
2014-Nov-26 19:33N 32°18' W 119°48'1413.6
2014-Nov-26 18:33N 32°28' W 119°58'1514.6
2014-Nov-26 17:33N 32°39' W 120°09'2914.3
2014-Nov-26 15:33N 33°01' W 120°31'1413.8
2014-Nov-26 14:33N 33°12' W 120°42'1413.8
2014-Nov-26 13:33N 33°22' W 120°52'1413.7
2014-Nov-26 12:34N 33°33' W 121°02'1413.8
2014-Nov-26 11:33N 33°46' W 121°09'1413.8
2014-Nov-26 10:34N 33°58' W 121°16'1414.2
2014-Nov-26 09:34N 34°11' W 121°23'1413.6
2014-Nov-26 08:34N 34°23' W 121°30'1913.6
2014-Nov-26 07:08N 34°41' W 121°40'1013.4
2014-Nov-26 06:24N 34°50' W 121°45'1113.5
2014-Nov-26 05:33N 35°01' W 121°50'8 8.4
2014-Nov-26 04:33N 35°08' W 121°55'1313.3
2014-Nov-26 03:33N 35°20' W 122°02'1414.0
2014-Nov-26 02:33N 35°33' W 122°09'1414.1
2014-Nov-26 01:33N 35°45' W 122°17'1413.9
2014-Nov-26 00:33N 35°58' W 122°24'1413.6
2014-Nov-25 23:33N 36°10' W 122°31'1313.3
2014-Nov-25 22:33N 36°23' W 122°37'1313.1
2014-Nov-25 21:33N 36°34' W 122°45'1313.5
2014-Nov-25 20:33N 36°46' W 122°52'1413.6
2014-Nov-25 19:33N 36°59' W 122°59'1312.7
2014-Nov-25 18:33N 37°10' W 123°05'1010.1
2014-Nov-25 17:33N 37°20' W 123°10'10 9.7
2014-Nov-25 16:33N 37°29' W 123°12'1111.2
2014-Nov-25 15:33N 37°36' W 123°01'1211.5
2014-Nov-25 14:33N 37°42' W 122°49'1110.9
2014-Nov-25 13:33N 37°47' W 122°36'1110.5
2014-Nov-25 12:33N 37°52' W 122°25'9 8.6
2014-Nov-25 11:33N 38°01' W 122°24'8 8.1
2014-Nov-25 10:33N 38°04' W 122°14'6 6.4
2014-Nov-25 09:33N 38°03' W 122°06'0 0.0
2014-Nov-23 07:21N 38°03' W 122°06'2 2.9
2014-Nov-23 06:33N 38°02' W 122°09'5 4.5
2014-Nov-23 05:33N 38°04' W 122°14'1010.5
2014-Nov-23 04:33N 37°59' W 122°26'1111.1
2014-Nov-23 03:33N 37°48' W 122°22'4 3.5
2014-Nov-23 02:33N 37°45' W 122°21'0 0.1
2014-Nov-23 01:30N 37°45' W 122°21'0 0.1
2014-Nov-23 00:33N 37°45' W 122°21'0 0.0
2014-Nov-22 23:34N 37°45' W 122°21'3 3.2
2014-Nov-22 22:34N 37°48' W 122°22'7 7.1
2014-Nov-22 21:33N 37°48' W 122°31'1010.0
2014-Nov-22 20:33N 37°43' W 122°42'9 9.2
2014-Nov-22 19:33N 37°38' W 122°52'1010.2
2014-Nov-22 18:33N 37°32' W 123°03'1010.3
2014-Nov-22 17:33N 37°24' W 123°10'12 1.9
2014-Nov-22 11:24N 37°17' W 123°23'1 0.3
2014-Nov-22 09:31N 37°17' W 123°22'1 0.4
2014-Nov-22 06:13N 37°17' W 123°21'0 0.6
2014-Nov-22 05:32N 37°16' W 123°22'1 0.6
2014-Nov-22 04:33N 37°16' W 123°22'0 0.5
2014-Nov-22 03:33N 37°16' W 123°23'0 0.4
2014-Nov-22 02:33N 37°16' W 123°23'3 2.8
2014-Nov-22 01:25N 37°17' W 123°27'6 7.1
2014-Nov-22 00:30N 37°20' W 123°35'3 2.4
2014-Nov-21 23:14N 37°16' W 123°35'21 5.6
2014-Nov-21 19:33N 37°00' W 123°19'1 0.6
2014-Nov-21 18:33N 37°00' W 123°18'1 1.3
2014-Nov-21 17:26N 37°01' W 123°20'1 1.1
2014-Nov-21 16:33N 37°01' W 123°21'1 1.1
2014-Nov-21 15:33N 37°01' W 123°22'1 0.9
2014-Nov-21 14:32N 37°01' W 123°24'3 1.1
2014-Nov-21 11:32N 37°03' W 123°27'1 1.1
2014-Nov-21 10:21N 37°04' W 123°28'1 1.2
2014-Nov-21 09:31N 37°05' W 123°29'2 1.1
2014-Nov-21 07:27N 37°07' W 123°31'25 2.1
2014-Nov-20 19:18N 37°28' W 123°15'1011.7
2014-Nov-20 18:28N 37°34' W 123°05'1111.8
2014-Nov-20 17:34N 37°40' W 122°53'1111.4
2014-Nov-20 16:33N 37°46' W 122°41'9 8.8
2014-Nov-20 15:33N 37°49' W 122°30'8 7.9
2014-Nov-20 14:34N 37°55' W 122°25'0 0.2
2014-Nov-20 13:32N 37°55' W 122°25'0 0.0
2014-Nov-20 12:29N 37°55' W 122°25'0 0.0
2014-Nov-20 11:32N 37°55' W 122°25'0 0.0
2014-Nov-20 10:32N 37°55' W 122°25'0 0.0
2014-Nov-20 09:32N 37°55' W 122°25'0 0.0
2014-Nov-20 08:32N 37°55' W 122°25'0 0.0
2014-Nov-20 07:20N 37°55' W 122°25'0 0.0
2014-Nov-20 06:29N 37°55' W 122°25'0 0.0
2014-Nov-20 05:05N 37°55' W 122°25'0 0.0
2014-Nov-20 04:32N 37°55' W 122°25'0 0.0
2014-Nov-20 03:32N 37°55' W 122°25'0 0.0
2014-Nov-20 02:23N 37°55' W 122°25'0 0.0
2014-Nov-20 01:32N 37°55' W 122°25'0 0.0
2014-Nov-20 00:32N 37°55' W 122°25'0 0.0
2014-Nov-19 23:32N 37°55' W 122°25'  
Track history (hours):
 
Tides and Currents Weather Stations Pressure Air Temp Water Temp Dewpoint Dewpoint Depression Visibility Wind Speed Wind Dir Waves Ship Positions

Energy Champion

Last reported at 2014-Nov-29 23:31 UTC. Time now 2014-Dec-21 06:14 UTC.
Position N 26°33' W 115°46'.
Warning: this ship's position is 21 days out of date.

Length 228 m; draft 8 m.

Type: Tanker. MMSI: 235009420.

Date/timePositionNaut miles runAvg speedWind from/ knotsBaromVisibWave heightAir tempDewpointWater temp
2014-Nov-29 23:31N 26°33' W 115°46'6612.4
2014-Nov-29 18:11N 27°33' W 116°18'6512.8
2014-Nov-29 13:06N 28°31' W 116°51'712.7
2014-Nov-29 12:34N 28°37' W 116°55'1312.7
2014-Nov-29 11:32N 28°49' W 117°01'2612.6
2014-Nov-29 09:29N 29°12' W 117°14'1212.7
2014-Nov-29 08:33N 29°23' W 117°20'1313.0
2014-Nov-29 07:33N 29°35' W 117°27'1313.0
2014-Nov-29 06:33N 29°46' W 117°33'1613.0
2014-Nov-29 05:20N 30°00' W 117°41'6112.8
2014-Nov-29 00:33N 30°55' W 118°12'1312.7
2014-Nov-28 23:33N 31°07' W 118°19'1212.4
2014-Nov-28 22:33N 31°18' W 118°26'6 6.5
2014-Nov-28 21:34N 31°23' W 118°29'1 1.3
2014-Nov-28 20:33N 31°25' W 118°30'3 2.6
2014-Nov-28 19:33N 31°26' W 118°32'2 2.2
2014-Nov-28 18:33N 31°28' W 118°34'2 1.9
2014-Nov-28 17:34N 31°29' W 118°36'2 2.0
2014-Nov-28 16:33N 31°30' W 118°38'2 1.8
2014-Nov-28 15:33N 31°31' W 118°39'2 1.8
2014-Nov-28 14:34N 31°32' W 118°41'2 1.8
2014-Nov-28 13:33N 31°33' W 118°43'2 1.8
2014-Nov-28 12:34N 31°34' W 118°45'2 1.8
2014-Nov-28 11:33N 31°35' W 118°47'2 1.8
2014-Nov-28 10:33N 31°36' W 118°48'2 1.9
2014-Nov-28 09:33N 31°38' W 118°50'2 1.7
2014-Nov-28 08:33N 31°39' W 118°51'2 1.8
2014-Nov-28 07:33N 31°40' W 118°53'2 1.8
2014-Nov-28 06:33N 31°41' W 118°55'2 1.9
2014-Nov-28 05:33N 31°42' W 118°57'2 1.8
2014-Nov-28 04:34N 31°43' W 118°58'2 1.8
2014-Nov-28 03:33N 31°44' W 119°00'2 2.0
2014-Nov-28 02:33N 31°45' W 119°02'2 1.7
2014-Nov-28 01:34N 31°46' W 119°04'2 1.9
2014-Nov-28 00:33N 31°47' W 119°06'2 1.6
2014-Nov-27 23:33N 31°47' W 119°07'2 1.9
2014-Nov-27 22:34N 31°48' W 119°09'2 1.8
2014-Nov-27 21:33N 31°49' W 119°11'2 1.7
2014-Nov-27 20:33N 31°50' W 119°13'2 1.6
2014-Nov-27 19:34N 31°50' W 119°15'4 4.1
2014-Nov-27 18:33N 31°53' W 119°19'6 5.5
2014-Nov-27 17:33N 31°56' W 119°24'4 3.6
2014-Nov-27 16:33N 31°58' W 119°28'2 1.6
2014-Nov-27 15:33N 31°59' W 119°29'2 2.2
2014-Nov-27 14:33N 32°01' W 119°31'7 7.0
2014-Nov-27 13:33N 31°57' W 119°24'4 3.8
2014-Nov-27 12:33N 31°57' W 119°19'0 0.1
2014-Nov-27 11:33N 31°56' W 119°19'0 0.1
2014-Nov-27 10:33N 31°57' W 119°19'0 0.3
2014-Nov-27 09:34N 31°57' W 119°19'0 0.5
2014-Nov-27 08:33N 31°57' W 119°19'1 0.6
2014-Nov-27 07:34N 31°58' W 119°19'1 0.6
2014-Nov-27 06:33N 31°58' W 119°20'1 0.8
2014-Nov-27 05:33N 31°59' W 119°20'1 0.7
2014-Nov-27 04:33N 31°60' W 119°21'1 0.7
2014-Nov-27 03:33N 32°00' W 119°22'1 0.7
2014-Nov-27 02:34N 32°01' W 119°22'1 0.9
2014-Nov-27 01:33N 32°01' W 119°23'9 9.3
2014-Nov-27 00:33N 32°08' W 119°30'4 3.6
2014-Nov-26 23:33N 32°05' W 119°30'1111.4
2014-Nov-26 22:33N 31°54' W 119°25'4 4.5
2014-Nov-26 21:33N 31°57' W 119°29'1212.4
2014-Nov-26 20:34N 32°07' W 119°37'1414.0
2014-Nov-26 19:33N 32°18' W 119°48'1413.6
2014-Nov-26 18:33N 32°28' W 119°58'1514.6
2014-Nov-26 17:33N 32°39' W 120°09'2914.3
2014-Nov-26 15:33N 33°01' W 120°31'1413.8
2014-Nov-26 14:33N 33°12' W 120°42'1413.8
2014-Nov-26 13:33N 33°22' W 120°52'1413.7
2014-Nov-26 12:34N 33°33' W 121°02'1413.8
2014-Nov-26 11:33N 33°46' W 121°09'1413.8
2014-Nov-26 10:34N 33°58' W 121°16'1414.2
2014-Nov-26 09:34N 34°11' W 121°23'1413.6
2014-Nov-26 08:34N 34°23' W 121°30'1913.6
2014-Nov-26 07:08N 34°41' W 121°40'1013.4
2014-Nov-26 06:24N 34°50' W 121°45'1113.5
2014-Nov-26 05:33N 35°01' W 121°50'8 8.4
2014-Nov-26 04:33N 35°08' W 121°55'1313.3
2014-Nov-26 03:33N 35°20' W 122°02'1414.0
2014-Nov-26 02:33N 35°33' W 122°09'1414.1
2014-Nov-26 01:33N 35°45' W 122°17'1413.9
2014-Nov-26 00:33N 35°58' W 122°24'1413.6
2014-Nov-25 23:33N 36°10' W 122°31'1313.3
2014-Nov-25 22:33N 36°23' W 122°37'1313.1
2014-Nov-25 21:33N 36°34' W 122°45'1313.5
2014-Nov-25 20:33N 36°46' W 122°52'1413.6
2014-Nov-25 19:33N 36°59' W 122°59'1312.7
2014-Nov-25 18:33N 37°10' W 123°05'1010.1
2014-Nov-25 17:33N 37°20' W 123°10'10 9.7
2014-Nov-25 16:33N 37°29' W 123°12'1111.2
2014-Nov-25 15:33N 37°36' W 123°01'1211.5
2014-Nov-25 14:33N 37°42' W 122°49'1110.9
2014-Nov-25 13:33N 37°47' W 122°36'1110.5
2014-Nov-25 12:33N 37°52' W 122°25'9 8.6
2014-Nov-25 11:33N 38°01' W 122°24'8 8.1
2014-Nov-25 10:33N 38°04' W 122°14'6 6.4
2014-Nov-25 09:33N 38°03' W 122°06'0 0.0
2014-Nov-23 07:21N 38°03' W 122°06'2 2.9
2014-Nov-23 06:33N 38°02' W 122°09'5 4.5
2014-Nov-23 05:33N 38°04' W 122°14'1010.5
2014-Nov-23 04:33N 37°59' W 122°26'1111.1
2014-Nov-23 03:33N 37°48' W 122°22'4 3.5
2014-Nov-23 02:33N 37°45' W 122°21'0 0.1
2014-Nov-23 01:30N 37°45' W 122°21'0 0.1
2014-Nov-23 00:33N 37°45' W 122°21'0 0.0
2014-Nov-22 23:34N 37°45' W 122°21'3 3.2
2014-Nov-22 22:34N 37°48' W 122°22'7 7.1
2014-Nov-22 21:33N 37°48' W 122°31'1010.0
2014-Nov-22 20:33N 37°43' W 122°42'9 9.2
2014-Nov-22 19:33N 37°38' W 122°52'1010.2
2014-Nov-22 18:33N 37°32' W 123°03'1010.3
2014-Nov-22 17:33N 37°24' W 123°10'12 1.9
2014-Nov-22 11:24N 37°17' W 123°23'1 0.3
2014-Nov-22 09:31N 37°17' W 123°22'1 0.4
2014-Nov-22 06:13N 37°17' W 123°21'0 0.6
2014-Nov-22 05:32N 37°16' W 123°22'1 0.6
2014-Nov-22 04:33N 37°16' W 123°22'0 0.5
2014-Nov-22 03:33N 37°16' W 123°23'0 0.4
2014-Nov-22 02:33N 37°16' W 123°23'3 2.8
2014-Nov-22 01:25N 37°17' W 123°27'6 7.1
2014-Nov-22 00:30N 37°20' W 123°35'3 2.4
2014-Nov-21 23:14N 37°16' W 123°35'21 5.6
2014-Nov-21 19:33N 37°00' W 123°19'1 0.6
2014-Nov-21 18:33N 37°00' W 123°18'1 1.3
2014-Nov-21 17:26N 37°01' W 123°20'1 1.1
2014-Nov-21 16:33N 37°01' W 123°21'1 1.1
2014-Nov-21 15:33N 37°01' W 123°22'1 0.9
2014-Nov-21 14:32N 37°01' W 123°24'3 1.1
2014-Nov-21 11:32N 37°03' W 123°27'1 1.1
2014-Nov-21 10:21N 37°04' W 123°28'1 1.2
2014-Nov-21 09:31N 37°05' W 123°29'2 1.1
2014-Nov-21 07:27N 37°07' W 123°31'25 2.1
2014-Nov-20 19:18N 37°28' W 123°15'1011.7
2014-Nov-20 18:28N 37°34' W 123°05'1111.8
2014-Nov-20 17:34N 37°40' W 122°53'1111.4
2014-Nov-20 16:33N 37°46' W 122°41'9 8.8
2014-Nov-20 15:33N 37°49' W 122°30'8 7.9
2014-Nov-20 14:34N 37°55' W 122°25'0 0.2
2014-Nov-20 13:32N 37°55' W 122°25'0 0.0
2014-Nov-20 12:29N 37°55' W 122°25'0 0.0
2014-Nov-20 11:32N 37°55' W 122°25'0 0.0
2014-Nov-20 10:32N 37°55' W 122°25'0 0.0
2014-Nov-20 09:32N 37°55' W 122°25'0 0.0
2014-Nov-20 08:32N 37°55' W 122°25'0 0.0
2014-Nov-20 07:20N 37°55' W 122°25'0 0.0
2014-Nov-20 06:29N 37°55' W 122°25'0 0.0
2014-Nov-20 05:05N 37°55' W 122°25'0 0.0
2014-Nov-20 04:32N 37°55' W 122°25'0 0.0
2014-Nov-20 03:32N 37°55' W 122°25'0 0.0
2014-Nov-20 02:23N 37°55' W 122°25'0 0.0
2014-Nov-20 01:32N 37°55' W 122°25'0 0.0
2014-Nov-20 00:32N 37°55' W 122°25'0 0.0
2014-Nov-19 23:32N 37°55' W 122°25'  

Dump ship's entire track history